Regional Weather Roundup
Issued by NWS Pendleton, OR

Current Version | Previous Version | Text Only | Print | Product List | Glossary On
Versions: 1 2 3 4 5 6 7 8 9 10 11 12 13 14 15 16 17 18 19 20 21 22 23 24 25 26 27 28 29 30 31 32 33 34 35 36 37 38 39 40 41 42 43 44 45 46 47 48 49 50
000
ASUS46 KPDT 210910
RWRPDT
PENDLETON REGIONAL WEATHER ROUNDUP
NATIONAL WEATHER SERVICE PENDLETON OREGON
100 AM PST TUE FEB 21 2017

NOTE: FAIR INDICATES FEW OR NO CLOUDS BELOW 12,000 FEET WITH NO
SIGNIFICANT WEATHER AND/OR OBSTRUCTIONS TO VISIBILITY.

# INDICATES UNOFFICIAL STATION AND DATA

WAZ520-211010-
EAST SLOPES OF WASHINGTON CASCADES

CITY            SKY/WX      TMP DP  RH  WIND    PRES   REMARKS
#CLE ELUM HS    N/A         32  31  96  CALM    29.65F
#CLE ELUM LAKE  N/A         32  31  96  CALM    29.69F
#GLENWOOD       N/A         34  33  96  CALM    29.68F
#MANASTASH CYN  N/A         32  29  89  CALM    29.65F
#NELSON 3SW     N/A         31  30  96  CALM    29.93S
#NILE           N/A         31  30  96  CALM    28.98F
#TEANAWAY 4NE   N/A         32  32  100 CALM    N/A
#TROUT LAKE 1NE N/A         34  33  96  CALM    29.68F
#TROUT LAKE 1E  N/A         32  31  96  CALM    29.65F
$$

WAZ521-211010-
SIMCOE HIGHLANDS

CITY            SKY/WX      TMP DP  RH  WIND    PRES   REMARKS
#BICKLETON HS   N/A         35  33  92  N3      29.27F
#CENTERVILLE 1SWN/A         34  31  89  CALM    29.65F
#GOLDENDALE 1NE N/A         38  33  82  N3      N/A
#GOLDENDALE 4W  N/A         36  23  59  CALM    29.67F
#GOODNOE HILLS  N/A         40  35  82  NE5     29.56F
#LYLE 6NE       N/A         37  36  96  CALM    29.65S
#PITT 4SE       N/A         35  34  96  CALM    29.70F
$$

WAZ026-211010-
KITTITAS VALLEY

CITY            SKY/WX      TMP DP  RH  WIND    PRES   REMARKS
ELLENSBURG AP   CLOUDY      31  28  88  NE5     29.66F FOG
#ELLENSBURG CWU N/A         30  29  96  CALM    29.67S
#ELLENSBURG 3NE N/A         29  28  96  CALM    27.77S
#ELLENSBURG 1E  N/A         29  N/A N/A CALM    N/A
#KITTITAS 4N    N/A         31  28  88  CALM    29.70F
#KITTITAS 3S    N/A         28  27  96  CALM    29.72F
#THORP 6N       N/A         32  31  96  N7      29.73F
$$

WAZ027-211010-
YAKIMA VALLEY

CITY            SKY/WX      TMP DP  RH  WIND    PRES   REMARKS
SUNNYSIDE AP    CLOUDY      34  32  92  W6      29.68F
YAKIMA AIRPORT  MOCLDY      36  33  89  CALM    29.68F
YAKIMA-VAGABOND MOCLDY      34  31  89  CALM    29.65F
#DONALD 2NE     N/A         37  24  59  W1      28.53F
#GRANDVIEW      N/A         37  31  79  CALM    29.71F
#MABTON         N/A         37  34  89  W3      29.67F
#MOXEE 2E       N/A         34   0  23  E1      29.69F
#NACHES 2SW     N/A         36  34  92  W2      29.69S
#TERRACE HTS    N/A         33  32  96  CALM    29.69F
#TOPPENISH      N/A         37  34  89  NW1     29.63F
#WEST VALLEY    N/A         34  32  92  CALM    29.70F
#W YAKIMA       N/A         35  33  92  CALM    29.72F
#WHITE SWAN 5E  N/A         34  32  92  CALM    29.72S
#WILEY CITY 3W  N/A         35  30  82  CALM    29.64F
$$

WAZ028-211010-
LOWER COLUMBIA BASIN...WASHINGTON

CITY            SKY/WX      TMP DP  RH  WIND    PRES   REMARKS
HANFORD         CLOUDY      35  33  92  N10     29.67
PASCO           LGT RAIN    38  35  89  CALM    29.69F
PROSSER AWOS    N/A         37  37  100 W6      29.70F
RICHLAND AWOS   CLOUDY      39  37  92  W3      29.69F
#BENTON CITY    N/A         40  36  85  NE2     29.61F
#CONNELL 5N     N/A         35  33  92  NE1     29.72F
#CONNELL 5NW    N/A         35  33  92  E6      29.67F
#ELTOPIA 6NW    N/A         36  33  89  CALM    28.65F
#KAHLOTUS       N/A         36  33  89  S8      29.70F
#KENNEWICK 3S   N/A         42  38  86  CALM    29.69F
#PATERSON       N/A         42  39  89  E2      29.66F
#SAGEMOOR 2W    N/A         37  33  85  N3      29.54F
#TOUCHET 2S     N/A         42  38  86  CALM    29.67F
#WEST PASCO     N/A         40  35  82  CALM    29.65F
$$

WAZ029-211010-
FOOTHILLS OF THE BLUES...WASHINGTON

CITY            SKY/WX      TMP DP  RH  WIND    PRES   REMARKS
WALLA WALLA AP  CLOUDY      44  39  82  N9      29.66F
#CLYDE 6NW      N/A         39  36  89  CALM    29.69F
#DAYTON SCHOOL  N/A         42  30  62  CALM    29.72S
#LOWDEN 2SE     N/A         42  40  93  CALM    29.65S
#PLEASANT VIEW 1N/A         39  36  89  CALM    29.74F
#PRESCOTT       N/A         40  38  92  CALM    29.68F
#WHITMAN COLLEGEN/A         44  39  82  NE2     29.72F
#WAITSBURG 5S   N/A         42  37  82  NE6     29.77F
#WAITSBURG 8N   N/A         40  N/A N/A N7      29.53S
#WALLA WALLA 5E N/A         45  39  79  E2      N/A
#WALLA WALLA U  N/A         45  41  86  CALM    29.69S
#WHITMAN MISSIONN/A         44  41  89  CALM    29.70F
$$

WAZ030-211010-
BLUE MOUNTAINS...WASHINGTON

CITY            SKY/WX      TMP DP  RH  WIND    PRES   REMARKS
#DIXIE 5SE      N/A         42  36  79  S7      29.57F
#SKI BLUEWOOD   N/A         33  32  96  CALM    29.62F
$$

ORZ009-041-WAZ024-211010-
COLUMBIA RIVER GORGE

CITY            SKY/WX      TMP DP  RH  WIND    PRES   REMARKS
HOOD RIVER AP   LGT RAIN    36  36  100 S3      29.68S
THE DALLES AP   LGT RAIN    39  38  96  SW3     29.68F
#ARLINGTON AIRPON/A         41  37  86  CALM    29.69F
#ARLINGTON HS   N/A         41  37  86  CALM    29.59F
#CELILO DOT     N/A         41  37  86  CALM    N/A
#LYLE           N/A         40  38  92  N3      29.70S
#MOSIER 1S      N/A         38  33  82  CALM    29.65F
#MURDOCK        N/A         40  38  92  CALM    29.68F
#RUFUS DOT      N/A         42  38  86  SE6     N/A
#SMITHVILLE     N/A         39  37  92  N2      29.63F

$$

ORZ510-211010-
NORTH CENTRAL OREGON

CITY            SKY/WX      TMP DP  RH  WIND    PRES   REMARKS
#CHENOWITH 1W   N/A         37  37  100 SE3     N/A
#COW CYN RST AREN/A         37  37  100 NE5     N/A
#DUFUR 9E       N/A         38  36  92  E9      29.71F
#GRASS VALLEY 1SN/A         37  36  96  E1      29.78F
#KENT DOT       N/A         37  32  82  N6      N/A
#MAUPIN SCHOOL  N/A         42  39  89  CALM    29.70R
#MORO SCHOOL    N/A         37  37  100 CALM    29.71F
#SHANIKO 5WSW   N/A         35  31  85  N16     N/A    WCI 25
#SHANIKO 4NW    N/A         34  33  96  E14     29.58F WCI 25
#TYGH VALLEY 2NEN/A         40  38  92  W3      29.66S
#WAPANITIA AIRPON/A         38  36  92  CALM    29.68S
#WASCO DOT      N/A         36  33  89  SW1     N/A
#WASCO AIRPORT  N/A         37  33  85  E5      N/A
#WASCO 5NE      N/A         34  32  92  CALM    29.68F
$$

ORZ511-211010-
CENTRAL OREGON

CITY            SKY/WX      TMP DP  RH  WIND    PRES   REMARKS
BEND AIRPORT    LGT RAIN    36  36  100 CALM    29.61R
MADRAS AIRPORT  LGT RAIN    37  37  100 W6      29.64R
PRINEVILLE AP   LGT RAIN    39  39  100 SW5     29.61R
REDMOND AIRPORT LGT RAIN    37  34  89  W6      29.61R
#ASHWOOD SCHOOL N/A         39  37  92  CALM    29.60F
#BEND 1SW       N/A         33  32  96  CALM    N/A
#BEND-AWBREY    N/A         34  33  96  S2      29.62F
#BEND-KIM LN    N/A         34  33  96  CALM    29.58S
#CULVER         N/A         37  35  92  CALM    29.57R
#CULVER 8W      N/A         37  34  89  CALM    29.67R
#LAKE BILLY CHINN/A         36  N/A N/A W7      29.75R
#POWELL BUTTE   N/A         37  35  92  W5      29.60R
#PRINEVILLE 3N  N/A         40  37  89  CALM    29.59R
#WARM SPRINGS   N/A         41  39  93  CALM    29.61R

$$


ORZ509-211010-
EAST SLOPES OF OREGON CASCADES

CITY            SKY/WX      TMP DP  RH  WIND    PRES   REMARKS
SISTERS AWOS    N/A         34  30  85  CALM    29.62R
#BLUE BOX PASS  N/A         32  N/A N/A NE6     N/A
#CAMP SHERMAN   N/A         32  30  92  CALM    29.72S
#LA PINE 4NW    N/A         32  29  89  CALM    29.67R
#LAVA BUTTE DOT N/A         33  31  92  E2      N/A
#SISTERS ODOT   N/A         33  N/A N/A CALM    N/A
#SISTERS 1NW    N/A         34  31  89  W1      N/A
#SISTERS 3N     N/A         33  29  85  CALM    29.64S
#SUNRIVER       N/A         33  32  96  CALM    29.65R
#TUMALO 3W      N/A         33  32  96  CALM    29.51S
#WANOGA BUTTE D N/A         30  30  100 W9      N/A

$$

ORZ044-211010-
LOWER COLUMBIA BASIN...OREGON

CITY            SKY/WX      TMP DP  RH  WIND    PRES   REMARKS
HERMISTON       LGT RAIN    42  41  96  CALM    29.66F
#BOARDMAN SCHOOLN/A         40  38  92  CALM    29.68S
#BOARDMAN 8SW   N/A         39  37  92  CALM    29.67F
#ECHO 8SW       N/A         40  40  100 CALM    29.67F
#I-84 EX 198 DOTN/A         44  39  82  N6      N/A
#IONE SCHOOL    N/A         40  27  59  CALM    29.68F
#UMATILLA       N/A         43  38  82  CALM    29.61F
$$

ORZ507-211010-
NORTHERN FOOTHILLS OF THE BLUES

CITY            SKY/WX      TMP DP  RH  WIND    PRES   REMARKS
PENDLETON AIRPT CLOUDY      40  38  92  E7      29.64F
#ADAMS 3WNW     N/A         41  37  86  CALM    29.65F
#ATHENA         N/A         42  37  82  CALM    29.69F
#CAYUSE         N/A         42  38  86  E10     29.65F
#HELIX SCHOOL   N/A         42  37  82  N5      29.66F
#HELIX 3N       N/A         42  36  79  N1      29.64F
#HOLDMAN 5SE    N/A         30  29  96  CALM    29.80S
#HOLDMAN 6E     N/A         42  38  86  N5      29.47F
#M-F FERNDALE   N/A         43  37  79  CALM    29.65F
#M-F GROVE ELEM N/A          0  -78  1  CALM    29.65F
#M-FREEWATER 5SEN/A         44  37  76  CALM    29.67F
#PENDLETON DNTN N/A         41  33  73  CALM    29.66F
#PDT AQUATIC CTRN/A         40  36  85  E3      29.66F
#PDT SUNRIDGE   N/A         40  38  92  CALM    29.67F
#PENDLETON 7NW  N/A         41  37  86  CALM    32.03S
#PILOT ROCK 1S  N/A         40  33  76  CALM    29.67F
#PILOT ROCK     N/A         40  36  85  CALM    29.67F
#TUTUILLA       N/A         40  37  89  CALM    29.67F
#UMAPINE 2E     N/A         43  40  89  CALM    29.64F
#WESTON SCHOOL  N/A         43  35  73  CALM    29.59F

$$

ORZ508-211010-
SOUTHERN FOOTHILLS OF THE BLUES

CITY            SKY/WX      TMP DP  RH  WIND    PRES   REMARKS
LEXINGTON       LGT MXD PCP 43  41  93  E6      29.66F
#AJAX           N/A         39  31  73  N6      29.80S
#CONDON SCHOOL  N/A         38  36  92  NE7     29.59F
#CONDON 5W      N/A         35  33  92  E10     29.58S
#HEPPNER EOC    N/A         41  37  86  CALM    29.57F
#HEPPNER 4NE    N/A         38  35  89  E7      29.62F
#LEXINGTON 2SE  N/A         43  39  86  CALM    29.61F
#MIKKALO        N/A         40  36  85  E5      29.76S
#OLEX 4N        N/A         38  36  92  CALM    29.65S
#RUGGS 5NE      N/A         38  37  96  E8      29.75F
#RUGGS 2SW      N/A         37  34  89  CALM    29.65F

$$

ORZ502-503-211010-
BLUE MOUNTAINS

CITY            SKY/WX      TMP DP  RH  WIND    PRES   REMARKS
MEACHAM         LGT RAIN    34  30  85  CALM    29.61F
#BATTLE MTN DOT N/A         34  32  92  S2      N/A
#GREENHORN 9SW  N/A         36  35  96  CALM    29.68F
#HEPPNER 15SE   N/A         33  31  92  CALM    29.90F
#LADD CYN SMT   N/A         39  37  92  S3      N/A
#LADD CREEK ODOTN/A         36  34  92  SW1     N/A
#LONG CREEK HS  N/A         42  40  93  CALM    N/A
#N POWDER DOT   N/A         40  38  92  SE15    N/A    WCI 32
#PIKES PEAK     N/A         38  30  73  CALM    27.99S
#TOLLGATE       N/A         31  30  96  NE1     29.54F
#UKIAH          N/A         36  34  92  CALM    29.55F
#WESTON 4E      N/A         38  33  82  CALM    29.64F
$$

ORZ505-211010-
JOHN DAY BASIN

CITY            SKY/WX      TMP DP  RH  WIND    PRES   REMARKS
JOHN DAY        RAIN        43  37  79  S17G25  29.62F WCI 35
#ANTELOPE 9ESE  N/A         42  38  86  CALM    N/A
#MITCHELL 8NW   N/A         36  34  92  CALM    29.42S
#MONUMENT HS    N/A         42  38  86  CALM    29.58F
#MT. VERNON 5SE N/A         38  35  89  E10     29.57S
#SPRAY SCHOOL   N/A         43  N/A N/A CALM    N/A
#WINLOCK        N/A         40  39  96  E3      29.58F
$$

ORZ506-211010-
OCHOCO AND JOHN DAY HIGHLANDS

CITY            SKY/WX      TMP DP  RH  WIND    PRES   REMARKS
#HORSE RIDGE DO N/A         37  34  89  S9      N/A
#PAULINA SCHOOL N/A         42  36  79  SW12    N/A    WCI 35
#PINE MTN OBS   N/A         30  29  96  S17G28  N/A    WCI 18
#PRAIRIE CITY   N/A         41  37  86  CALM    29.79F
#SENECA         N/A         35  N/A N/A W7      N/A
#SENECA 9NW     N/A         34  33  96  CALM    29.64S
$$

ORZ049-211010-
GRANDE RONDE VALLEY

CITY            SKY/WX      TMP DP  RH  WIND    PRES   REMARKS
LA GRANDE       CLOUDY      39  34  82  N3      29.64F
#COVE           N/A         40  38  92  S1      29.69F
#COVE 6NW       N/A         39  36  89  CALM    29.66F
#ELGIN 3N       N/A         36  30  79  CALM    29.65F
#ELGIN 1E       N/A         37  32  82  CALM    N/A
#IMBLER SCHOOL  N/A         37  34  89  CALM    29.65F
#ISLAND CITY 4N N/A         43  42  96  CALM    29.67S
#UNION 1S       N/A         44  38  79  SE7     29.64F
$$

ORZ050-211010-
WALLOWA COUNTY

CITY            SKY/WX      TMP DP  RH  WIND    PRES   REMARKS
JOSEPH AIRPORT  LGT RAIN    34  32  92  CALM    29.65F
#IMNAHA SCHOOL  N/A         48  41  77  SE5     29.68F
#JOSEPH 3N      N/A         32  27  82  CALM    29.71F
#JOSEPH 3W      N/A         34  31  89  CALM    29.52F
#LOSTINE        N/A         34  32  92  CALM    29.50F
#LOSTINE 3SE    N/A         34  32  92  CALM    29.69F
#MT HOWARD 8000 N/A         27  25  92  S10G24  29.57F
#PROMISE 1S     N/A         33  31  92  CALM    29.79F
#WALLOWA SCHOOL N/A         34  32  92  CALM    29.66F



$$



USA.gov is the U.S. government's official web portal to all federal, state and local government web resources and services.